| time (UTC) | temp F | wind direction | speed MPH | gust MPH | rain 1hr in | rain 24hr in | rain mn in | humidity % | barometer mb |
| 20260510221007 | 58 | 121 | 12.0 | 13.0 | 0.00 | 0.00 | 0.00 | 52 | 1008.5 |
| 20260510220507 | 58 | 105 | 12.0 | 14.0 | 0.00 | 0.00 | 0.00 | 52 | 1008.7 |
| 20260510220008 | 58 | 110 | 13.0 | 14.0 | 0.00 | 0.00 | 0.00 | 52 | 1008.9 |
| 20260510215507 | 58 | 102 | 12.0 | 14.0 | 0.00 | 0.00 | 0.00 | 53 | 1008.9 |
| 20260510215008 | 57 | 108 | 12.0 | 14.0 | 0.00 | 0.00 | 0.00 | 54 | 1008.9 |
| 20260510214507 | 57 | 107 | 15.0 | 15.0 | 0.00 | 0.00 | 0.00 | 54 | 1009.0 |
| 20260510214007 | 58 | 105 | 14.0 | 15.0 | 0.00 | 0.00 | 0.00 | 55 | 1009.2 |
| 20260510213507 | 58 | 100 | 12.0 | 14.0 | 0.00 | 0.00 | 0.00 | 56 | 1009.1 |
| 20260510213009 | 58 | 99 | 12.0 | 14.0 | 0.00 | 0.00 | 0.00 | 55 | 1009.0 |
| 20260510212507 | 58 | 103 | 13.0 | 14.0 | 0.00 | 0.00 | 0.00 | 56 | 1009.5 |
| 20260510212008 | 58 | 106 | 11.0 | 12.0 | 0.00 | 0.00 | 0.00 | 56 | 1009.6 |
| 20260510211508 | 58 | 107 | 11.0 | 12.0 | 0.00 | 0.00 | 0.00 | 56 | 1009.6 |
| 20260510211007 | 58 | 109 | 11.0 | 12.0 | 0.00 | 0.00 | 0.00 | 56 | 1009.6 |
| 20260510210507 | 58 | 101 | 9.0 | 12.0 | 0.00 | 0.00 | 0.00 | 57 | 1009.6 |
| 20260510210007 | 58 | 106 | 9.0 | 10.0 | 0.00 | 0.00 | 0.00 | 58 | 1009.8 |
| 20260510205508 | 58 | 98 | 11.0 | 13.0 | 0.00 | 0.00 | 0.00 | 57 | 1009.8 |
| 20260510205008 | 58 | 104 | 14.0 | 15.0 | 0.00 | 0.00 | 0.00 | 56 | 1009.8 |
| 20260510204007 | 59 | 99 | 14.0 | 14.0 | 0.00 | 0.00 | 0.00 | 57 | 1009.9 |
| 20260510203507 | 59 | 100 | 13.0 | 13.0 | 0.00 | 0.00 | 0.00 | 57 | 1010.0 |
| 20260510203008 | 59 | 94 | 12.0 | 13.0 | 0.00 | 0.00 | 0.00 | 57 | 1010.1 |
| 20260510202508 | 59 | 91 | 12.0 | 13.0 | 0.00 | 0.00 | 0.00 | 57 | 1010.2 |
| 20260510202007 | 60 | 92 | 11.0 | 12.0 | 0.00 | 0.00 | 0.00 | 56 | 1010.3 |
| 20260510201506 | 60 | 86 | 14.0 | 14.0 | 0.00 | 0.00 | 0.00 | 55 | 1010.5 |
| 20260510201008 | 60 | 86 | 14.0 | 15.0 | 0.00 | 0.00 | 0.00 | 55 | 1010.3 |
| 20260510200507 | 60 | 84 | 14.0 | 14.0 | 0.00 | 0.00 | 0.00 | 56 | 1010.4 |
| 20260510200007 | 60 | 87 | 14.0 | 14.0 | 0.00 | 0.00 | 0.00 | 55 | 1010.6 |
| 20260510195507 | 60 | 83 | 13.0 | 14.0 | 0.00 | 0.00 | 0.00 | 54 | 1010.7 |
| 20260510195007 | 60 | 86 | 13.0 | 14.0 | 0.00 | 0.00 | 0.00 | 55 | 1010.5 |
| 20260510194508 | 60 | 82 | 15.0 | 16.0 | 0.00 | 0.00 | 0.00 | 55 | 1010.8 |
| 20260510194007 | 60 | 86 | 13.0 | 14.0 | 0.00 | 0.00 | 0.00 | 56 | 1010.8 |
| 20260510193507 | 60 | 84 | 12.0 | 13.0 | 0.00 | 0.00 | 0.00 | 55 | 1010.7 |
| 20260510193007 | 60 | 79 | 13.0 | 14.0 | 0.00 | 0.00 | 0.00 | 55 | 1010.8 |
| 20260510192508 | 60 | 76 | 13.0 | 14.0 | 0.00 | 0.00 | 0.00 | 55 | 1010.7 |
| 20260510192007 | 60 | 80 | 12.0 | 14.0 | 0.00 | 0.00 | 0.00 | 55 | 1010.8 |
| 20260510191007 | 61 | 78 | 12.0 | 14.0 | 0.00 | 0.00 | 0.00 | 55 | 1010.8 |
| 20260510190508 | 61 | 83 | 12.0 | 13.0 | 0.00 | 0.00 | 0.00 | 56 | 1011.0 |
| 20260510190007 | 61 | 73 | 9.0 | 12.0 | 0.00 | 0.00 | 0.00 | 56 | 1011.0 |
| 20260510185508 | 61 | 75 | 10.0 | 12.0 | 0.00 | 0.00 | 0.00 | 56 | 1010.8 |
| 20260510185007 | 61 | 70 | 11.0 | 13.0 | 0.00 | 0.00 | 0.00 | 56 | 1011.0 |
| 20260510184507 | 61 | 76 | 11.0 | 12.0 | 0.00 | 0.00 | 0.00 | 56 | 1010.8 |
| 20260510184008 | 61 | 76 | 11.0 | 13.0 | 0.00 | 0.00 | 0.00 | 55 | 1010.8 |
| 20260510183507 | 61 | 76 | 12.0 | 12.0 | 0.00 | 0.00 | 0.00 | 55 | 1010.8 |
| 20260510183007 | 61 | 77 | 8.0 | 11.0 | 0.00 | 0.00 | 0.00 | 55 | 1010.8 |
| 20260510182508 | 62 | 69 | 8.0 | 11.0 | 0.00 | 0.00 | 0.00 | 54 | 1010.7 |
| 20260510182008 | 62 | 72 | 11.0 | 12.0 | 0.00 | 0.00 | 0.00 | 53 | 1010.7 |
| 20260510181507 | 62 | 68 | 6.0 | 11.0 | 0.00 | 0.00 | 0.00 | 53 | 1010.6 |
| 20260510181007 | 62 | 70 | 8.0 | 12.0 | 0.00 | 0.00 | 0.00 | 52 | 1010.8 |
| 20260510180507 | 62 | 65 | 12.0 | 13.0 | 0.00 | 0.00 | 0.00 | 52 | 1010.8 |
| 20260510180008 | 62 | 57 | 11.0 | 15.0 | 0.00 | 0.00 | 0.00 | 52 | 1010.7 |
| 20260510175507 | 62 | 83 | 5.0 | 8.0 | 0.00 | 0.00 | 0.00 | 52 | 1011.2 |
| 20260510174508 | 63 | 61 | 12.0 | 12.0 | 0.00 | 0.00 | 0.00 | 51 | 1010.9 |
| 20260510174008 | 63 | 84 | 9.0 | 14.0 | 0.00 | 0.00 | 0.00 | 50 | 1010.9 |
| 20260510173507 | 63 | 53 | 12.0 | 13.0 | 0.00 | 0.00 | 0.00 | 50 | 1011.2 |
| 20260510173008 | 64 | 62 | 9.0 | 13.0 | 0.00 | 0.00 | 0.00 | 49 | 1011.0 |
| 20260510172507 | 64 | 72 | 6.0 | 9.0 | 0.00 | 0.00 | 0.00 | 49 | 1011.2 |
| 20260510172007 | 64 | 65 | 12.0 | 16.0 | 0.00 | 0.00 | 0.00 | 49 | 1011.3 |
| 20260510171508 | 64 | 52 | 13.0 | 14.0 | 0.00 | 0.00 | 0.00 | 49 | 1011.4 |
| 20260510171007 | 64 | 54 | 15.0 | 15.0 | 0.00 | 0.00 | 0.00 | 48 | 1011.4 |
| 20260510170508 | 64 | 58 | 12.0 | 13.0 | 0.00 | 0.00 | 0.00 | 48 | 1011.5 |
| 20260510170008 | 65 | 68 | 6.0 | 7.0 | 0.00 | 0.00 | 0.00 | 49 | 1011.6 |
| 20260510165507 | 65 | 30 | 6.0 | 11.0 | 0.00 | 0.00 | 0.00 | 49 | 1011.6 |
| 20260510165009 | 64 | 61 | 11.0 | 11.0 | 0.00 | 0.00 | 0.00 | 49 | 1011.8 |
| 20260510164507 | 64 | 58 | 10.0 | 10.0 | 0.00 | 0.00 | 0.00 | 48 | 1011.8 |
| 20260510164008 | 64 | 45 | 7.0 | 10.0 | 0.00 | 0.00 | 0.00 | 49 | 1011.8 |
| 20260510163508 | 64 | 61 | 10.0 | 11.0 | 0.00 | 0.00 | 0.00 | 50 | 1012.0 |
| 20260510163008 | 64 | 57 | 8.0 | 9.0 | 0.00 | 0.00 | 0.00 | 49 | 1012.1 |
| 20260510162508 | 64 | 27 | 4.0 | 7.0 | 0.00 | 0.00 | 0.00 | 49 | 1012.2 |
| 20260510162008 | 64 | 46 | 12.0 | 13.0 | 0.00 | 0.00 | 0.00 | 49 | 1012.1 |
| 20260510161507 | 64 | 50 | 4.0 | 6.0 | 0.00 | 0.00 | 0.00 | 49 | 1012.3 |
| 20260510161008 | 65 | 47 | 10.0 | 12.0 | 0.00 | 0.00 | 0.00 | 48 | 1012.3 |
| 20260510160508 | 65 | 70 | 5.0 | 7.0 | 0.00 | 0.00 | 0.00 | 49 | 1012.3 |
| 20260510160008 | 65 | 75 | 9.0 | 10.0 | 0.00 | 0.00 | 0.00 | 48 | 1012.5 |
| 20260510155507 | 65 | 49 | 8.0 | 11.0 | 0.00 | 0.00 | 0.00 | 48 | 1012.3 |
| 20260510155007 | 65 | 75 | 11.0 | 12.0 | 0.00 | 0.00 | 0.00 | 48 | 1012.4 |
| 20260510154508 | 66 | 65 | 4.0 | 5.0 | 0.00 | 0.00 | 0.00 | 49 | 1012.7 |
| 20260510154007 | 66 | 34 | 3.0 | 4.0 | 0.00 | 0.00 | 0.00 | 48 | 1012.5 |
| 20260510153508 | 65 | 82 | 7.0 | 8.0 | 0.00 | 0.00 | 0.00 | 47 | 1012.9 |
| 20260510153008 | 66 | 359 | 4.0 | 4.0 | 0.00 | 0.00 | 0.00 | 45 | 1012.8 |
| 20260510152508 | 66 | 346 | 2.0 | 2.0 | 0.00 | 0.00 | 0.00 | 48 | 1013.0 |
| 20260510151507 | 67 | 101 | 2.0 | 2.0 | 0.00 | 0.00 | 0.00 | 44 | 1013.3 |
| 20260510151006 | 66 | 325 | 2.0 | 3.0 | 0.00 | 0.00 | 0.00 | 46 | 1013.3 |
| 20260510150507 | 66 | 72 | 3.0 | 4.0 | 0.00 | 0.00 | 0.00 | 46 | 1013.3 |
| 20260510150008 | 65 | 92 | 4.0 | 5.0 | 0.00 | 0.00 | 0.00 | 45 | 1013.2 |
| 20260510145507 | 65 | 61 | 3.0 | 4.0 | 0.00 | 0.00 | 0.00 | 46 | 1013.4 |
| 20260510145007 | 66 | 61 | 6.0 | 7.0 | 0.00 | 0.00 | 0.00 | 44 | 1013.3 |
| 20260510144508 | 66 | 96 | 4.0 | 4.0 | 0.00 | 0.00 | 0.00 | 44 | 1013.4 |
| 20260510144007 | 66 | 5 | 2.0 | 3.0 | 0.00 | 0.00 | 0.00 | 44 | 1013.5 |
| 20260510143508 | 66 | 16 | 6.0 | 7.0 | 0.00 | 0.00 | 0.00 | 44 | 1013.3 |
| 20260510143007 | 65 | 61 | 2.0 | 5.0 | 0.00 | 0.00 | 0.00 | 45 | 1013.4 |
| 20260510142507 | 66 | 3 | 1.0 | 4.0 | 0.00 | 0.00 | 0.00 | 46 | 1013.3 |
| 20260510142008 | 65 | 56 | 3.0 | 4.0 | 0.00 | 0.00 | 0.00 | 46 | 1013.3 |
| 20260510141507 | 65 | 83 | 5.0 | 7.0 | 0.00 | 0.00 | 0.00 | 47 | 1013.6 |
| 20260510141008 | 66 | 45 | 4.0 | 4.0 | 0.00 | 0.00 | 0.00 | 44 | 1013.4 |
| 20260510140507 | 66 | 71 | 5.0 | 6.0 | 0.00 | 0.00 | 0.00 | 45 | 1013.6 |
| 20260510140008 | 66 | 54 | 4.0 | 5.0 | 0.00 | 0.00 | 0.00 | 42 | 1013.7 |
| 20260510135508 | 66 | 15 | 1.0 | 3.0 | 0.00 | 0.00 | 0.00 | 47 | 1013.6 |
| 20260510135008 | 65 | 120 | 1.0 | 2.0 | 0.00 | 0.00 | 0.00 | 44 | 1013.6 |
| 20260510134508 | 65 | 74 | 6.0 | 10.0 | 0.00 | 0.00 | 0.00 | 44 | 1013.9 |
| 20260510134007 | 66 | 100 | 7.0 | 8.0 | 0.00 | 0.00 | 0.00 | 45 | 1013.8 |
| 20260510133508 | 66 | 61 | 7.0 | 8.0 | 0.00 | 0.00 | 0.00 | 48 | 1013.9 |
| 20260510133008 | 65 | 144 | 1.0 | 3.0 | 0.00 | 0.00 | 0.00 | 47 | 1013.9 |
| 20260510132508 | 65 | 353 | 3.0 | 5.0 | 0.00 | 0.00 | 0.00 | 48 | 1014.0 |
| 20260510132007 | 66 | 46 | 6.0 | 7.0 | 0.00 | 0.00 | 0.00 | 48 | 1014.3 |
| 20260510131507 | 65 | 42 | 3.0 | 5.0 | 0.00 | 0.00 | 0.00 | 51 | 1014.2 |
| 20260510131008 | 66 | 52 | 2.0 | 3.0 | 0.00 | 0.00 | 0.00 | 49 | 1014.2 |
| 20260510130508 | 66 | 28 | 3.0 | 6.0 | 0.00 | 0.00 | 0.00 | 50 | 1014.4 |
| 20260510130007 | 66 | 68 | 8.0 | 8.0 | 0.00 | 0.00 | 0.00 | 49 | 1014.5 |
| 20260510125508 | 66 | 73 | 6.0 | 6.0 | 0.00 | 0.00 | 0.00 | 49 | 1014.5 |
| 20260510125007 | 65 | 132 | 5.0 | 7.0 | 0.00 | 0.00 | 0.00 | 48 | 1014.3 |
| 20260510124508 | 66 | 98 | 6.0 | 9.0 | 0.00 | 0.00 | 0.00 | 48 | 1014.7 |
| 20260510124007 | 66 | 154 | 4.0 | 4.0 | 0.00 | 0.00 | 0.00 | 48 | 1014.6 |
| 20260510123508 | 65 | 295 | 3.0 | 3.0 | 0.00 | 0.00 | 0.00 | 47 | 1014.5 |
| 20260510123008 | 65 | 50 | 5.0 | 5.0 | 0.00 | 0.00 | 0.00 | 47 | 1014.8 |
| 20260510122508 | 64 | 85 | 8.0 | 9.0 | 0.00 | 0.00 | 0.00 | 48 | 1014.7 |
| 20260510122007 | 65 | 25 | 6.0 | 8.0 | 0.00 | 0.00 | 0.00 | 45 | 1014.8 |
| 20260510121507 | 65 | 42 | 8.0 | 9.0 | 0.00 | 0.00 | 0.00 | 47 | 1015.0 |
| 20260510121007 | 65 | 27 | 3.0 | 6.0 | 0.00 | 0.00 | 0.00 | 48 | 1015.0 |
| 20260510120508 | 64 | 122 | 2.0 | 2.0 | 0.00 | 0.00 | 0.00 | 47 | 1014.9 |
| 20260510120008 | 64 | 86 | 6.0 | 10.0 | 0.00 | 0.00 | 0.00 | 47 | 1015.0 |
| 20260510115507 | 64 | 140 | 4.0 | 5.0 | 0.00 | 0.00 | 0.00 | 49 | 1015.1 |
| 20260510115008 | 64 | 85 | 6.0 | 6.0 | 0.00 | 0.00 | 0.00 | 46 | 1015.3 |
| 20260510114509 | 63 | 64 | 6.0 | 8.0 | 0.00 | 0.00 | 0.00 | 44 | 1015.4 |
| 20260510114008 | 64 | 55 | 4.0 | 4.0 | 0.00 | 0.00 | 0.00 | 48 | 1015.4 |
| 20260510113508 | 64 | 68 | 4.0 | 7.0 | 0.00 | 0.00 | 0.00 | 51 | 1015.6 |
| 20260510113009 | 64 | 67 | 2.0 | 3.0 | 0.00 | 0.00 | 0.00 | 50 | 1015.4 |
| 20260510112508 | 65 | 265 | 4.0 | 4.0 | 0.00 | 0.00 | 0.00 | 50 | 1015.5 |
| 20260510112007 | 64 | 229 | 1.0 | 2.0 | 0.00 | 0.00 | 0.00 | 49 | 1015.7 |
| 20260510111508 | 63 | 130 | 4.0 | 4.0 | 0.00 | 0.00 | 0.00 | 50 | 1015.8 |
| 20260510111008 | 63 | 96 | 4.0 | 6.0 | 0.00 | 0.00 | 0.00 | 49 | 1015.6 |
| 20260510110508 | 63 | 43 | 8.0 | 10.0 | 0.00 | 0.00 | 0.00 | 50 | 1015.7 |
| 20260510110008 | 63 | 54 | 2.0 | 2.0 | 0.00 | 0.00 | 0.00 | 52 | 1015.8 |
| 20260510105508 | 64 | 41 | 5.0 | 6.0 | 0.00 | 0.00 | 0.00 | 54 | 1015.8 |
| 20260510105008 | 62 | 139 | 5.0 | 7.0 | 0.00 | 0.00 | 0.00 | 55 | 1015.7 |
| 20260510104508 | 62 | 76 | 11.0 | 11.0 | 0.00 | 0.00 | 0.00 | 53 | 1015.9 |
| 20260510104007 | 62 | 96 | 6.0 | 11.0 | 0.00 | 0.00 | 0.00 | 56 | 1016.0 |
| 20260510103507 | 63 | 136 | 4.0 | 4.0 | 0.00 | 0.00 | 0.00 | 55 | 1015.8 |
| 20260510103007 | 61 | 164 | 7.0 | 10.0 | 0.00 | 0.00 | 0.00 | 55 | 1015.6 |
| 20260510102007 | 61 | 93 | 8.0 | 8.0 | 0.00 | 0.00 | 0.00 | 58 | 1015.9 |
| 20260510101508 | 60 | 67 | 9.0 | 12.0 | 0.00 | 0.00 | 0.00 | 58 | 1015.9 |
| 20260510101006 | 62 | 77 | 8.0 | 9.0 | 0.00 | 0.00 | 0.00 | 56 | 1016.2 |
| 20260510100507 | 61 | 100 | 12.0 | 12.0 | 0.00 | 0.00 | 0.00 | 59 | 1016.3 |
| 20260510100008 | 61 | 118 | 3.0 | 4.0 | 0.00 | 0.00 | 0.00 | 61 | 1016.5 |
| 20260510095507 | 61 | 145 | 6.0 | 10.0 | 0.00 | 0.00 | 0.00 | 58 | 1016.3 |
| 20260510095007 | 60 | 94 | 9.0 | 10.0 | 0.00 | 0.00 | 0.00 | 62 | 1016.3 |
| 20260510094508 | 60 | 119 | 3.0 | 6.0 | 0.00 | 0.00 | 0.00 | 59 | 1016.2 |
| 20260510094008 | 61 | 134 | 12.0 | 13.0 | 0.00 | 0.00 | 0.00 | 58 | 1016.3 |
| 20260510093508 | 59 | 153 | 7.0 | 8.0 | 0.00 | 0.00 | 0.00 | 61 | 1016.3 |
| 20260510093007 | 59 | 102 | 10.0 | 11.0 | 0.00 | 0.00 | 0.00 | 59 | 1016.4 |
| 20260510092508 | 60 | 89 | 10.0 | 10.0 | 0.00 | 0.00 | 0.00 | 58 | 1016.4 |
| 20260510092007 | 61 | 176 | 3.0 | 4.0 | 0.00 | 0.00 | 0.00 | 59 | 1016.6 |
| 20260510091508 | 61 | 162 | 5.0 | 6.0 | 0.00 | 0.00 | 0.00 | 62 | 1016.5 |
| 20260510091006 | 59 | 87 | 3.0 | 4.0 | 0.00 | 0.00 | 0.00 | 61 | 1016.7 |
| 20260510090507 | 59 | 98 | 8.0 | 8.0 | 0.00 | 0.00 | 0.00 | 60 | 1016.8 |
| 20260510085507 | 59 | 70 | 4.0 | 4.0 | 0.00 | 0.00 | 0.00 | 63 | 1016.7 |
| 20260510085008 | 58 | 132 | 2.0 | 3.0 | 0.00 | 0.00 | 0.00 | 62 | 1016.9 |
| 20260510084508 | 57 | 91 | 6.0 | 6.0 | 0.00 | 0.00 | 0.00 | 63 | 1017.0 |
| 20260510084007 | 57 | 81 | 10.0 | 10.0 | 0.00 | 0.00 | 0.00 | 64 | 1016.9 |
| 20260510083508 | 58 | 145 | 3.0 | 4.0 | 0.00 | 0.00 | 0.00 | 65 | 1017.1 |
| 20260510083008 | 57 | 56 | 4.0 | 7.0 | 0.00 | 0.00 | 0.00 | 65 | 1016.9 |
| 20260510082508 | 56 | 75 | 7.0 | 9.0 | 0.00 | 0.00 | 0.00 | 66 | 1017.1 |
| 20260510082007 | 57 | 84 | 6.0 | 8.0 | 0.00 | 0.00 | 0.00 | 66 | 1017.1 |
| 20260510081508 | 56 | 40 | 3.0 | 3.0 | 0.00 | 0.00 | 0.00 | 68 | 1017.3 |
| 20260510081007 | 56 | 95 | 5.0 | 6.0 | 0.00 | 0.00 | 0.00 | 68 | 1017.2 |
| 20260510080508 | 55 | 69 | 5.0 | 7.0 | 0.00 | 0.00 | 0.00 | 69 | 1017.1 |
| 20260510080009 | 55 | 101 | 5.0 | 6.0 | 0.00 | 0.00 | 0.00 | 68 | 1017.3 |
| 20260510075508 | 55 | 109 | 1.0 | 2.0 | 0.00 | 0.00 | 0.00 | 67 | 1017.4 |
| 20260510075007 | 56 | 108 | 4.0 | 4.0 | 0.00 | 0.00 | 0.00 | 69 | 1017.1 |
| 20260510074507 | 54 | 84 | 6.0 | 7.0 | 0.00 | 0.00 | 0.00 | 69 | 1017.1 |
| 20260510074008 | 54 | 58 | 4.0 | 5.0 | 0.00 | 0.00 | 0.00 | 69 | 1017.2 |
| 20260510073508 | 54 | 61 | 5.0 | 6.0 | 0.00 | 0.00 | 0.00 | 69 | 1017.3 |
| 20260510073007 | 55 | 30 | 5.0 | 5.0 | 0.00 | 0.00 | 0.00 | 68 | 1017.2 |
| 20260510072508 | 54 | 89 | 6.0 | 7.0 | 0.00 | 0.00 | 0.00 | 69 | 1017.4 |
| 20260510072007 | 53 | 72 | 8.0 | 8.0 | 0.00 | 0.00 | 0.00 | 69 | 1017.3 |
| 20260510071509 | 53 | 76 | 2.0 | 4.0 | 0.00 | 0.00 | 0.00 | 70 | 1017.4 |
| 20260510071007 | 54 | 79 | 6.0 | 7.0 | 0.00 | 0.00 | 0.00 | 69 | 1017.5 |
| 20260510070507 | 53 | 130 | 5.0 | 5.0 | 0.00 | 0.00 | 0.00 | 72 | 1017.3 |
| 20260510070008 | 53 | 117 | 4.0 | 6.0 | 0.00 | 0.00 | 0.00 | 71 | 1017.5 |
| 20260510065508 | 52 | 171 | 4.0 | 5.0 | 0.00 | 0.00 | 0.00 | 70 | 1017.6 |
| 20260510065007 | 52 | 180 | 5.0 | 5.0 | 0.00 | 0.00 | 0.00 | 70 | 1017.7 |
| 20260510064507 | 52 | 178 | 4.0 | 6.0 | 0.00 | 0.00 | 0.00 | 70 | 1017.8 |
| 20260510064007 | 51 | 178 | 2.0 | 5.0 | 0.00 | 0.00 | 0.00 | 73 | 1017.5 |
| 20260510063508 | 51 | 157 | 4.0 | 5.0 | 0.00 | 0.00 | 0.00 | 73 | 1017.7 |
| 20260510063008 | 50 | 169 | 4.0 | 7.0 | 0.00 | 0.00 | 0.00 | 75 | 1017.8 |
| 20260510062508 | 52 | 160 | 5.0 | 6.0 | 0.00 | 0.00 | 0.00 | 75 | 1017.8 |
| 20260510062007 | 51 | 147 | 5.0 | 6.0 | 0.00 | 0.00 | 0.00 | 74 | 1018.0 |
| 20260510061006 | 50 | 156 | 3.0 | 4.0 | 0.00 | 0.00 | 0.00 | 77 | 1017.8 |
| 20260510060508 | 50 | 138 | 4.0 | 4.0 | 0.00 | 0.00 | 0.00 | 75 | 1017.7 |
| 20260510060008 | 51 | 157 | 1.0 | 3.0 | 0.00 | 0.00 | 0.00 | 76 | 1017.9 |
| 20260510055508 | 50 | 153 | 2.0 | 2.0 | 0.00 | 0.00 | 0.00 | 78 | 1017.9 |
| 20260510055007 | 50 | 153 | 2.0 | 3.0 | 0.00 | 0.00 | 0.00 | 79 | 1017.9 |
| 20260510054508 | 49 | 145 | 2.0 | 4.0 | 0.00 | 0.00 | 0.00 | 79 | 1018.3 |
| 20260510054007 | 48 | 156 | 2.0 | 4.0 | 0.00 | 0.00 | 0.00 | 81 | 1018.0 |
| 20260510053508 | 48 | 175 | 5.0 | 5.0 | 0.00 | 0.00 | 0.00 | 81 | 1018.1 |
| 20260510053007 | 48 | 167 | 2.0 | 3.0 | 0.00 | 0.00 | 0.00 | 81 | 1018.2 |
| 20260510052508 | 48 | 213 | 1.0 | 1.0 | 0.00 | 0.00 | 0.00 | 82 | 1018.2 |
| 20260510051508 | 46 | 186 | 3.0 | 4.0 | 0.00 | 0.00 | 0.00 | 85 | 1018.1 |
| 20260510050508 | 45 | 167 | 9.0 | 10.0 | 0.00 | 0.00 | 0.00 | 85 | 1018.0 |
| 20260510050009 | 45 | 165 | 7.0 | 7.0 | 0.00 | 0.00 | 0.00 | 85 | 1018.1 |
| 20260510045507 | 44 | 168 | 6.0 | 6.0 | 0.00 | 0.00 | 0.00 | 87 | 1018.2 |
| 20260510045008 | 44 | 166 | 8.0 | 9.0 | 0.00 | 0.00 | 0.00 | 87 | 1018.2 |
| 20260510044507 | 44 | 174 | 8.0 | 9.0 | 0.00 | 0.00 | 0.00 | 87 | 1018.4 |
| 20260510044008 | 44 | 174 | 7.0 | 8.0 | 0.00 | 0.00 | 0.00 | 86 | 1018.2 |
| 20260510043507 | 44 | 169 | 8.0 | 8.0 | 0.00 | 0.00 | 0.00 | 85 | 1018.3 |
| 20260510043007 | 44 | 176 | 7.0 | 9.0 | 0.00 | 0.00 | 0.00 | 86 | 1018.5 |
| 20260510042507 | 44 | 162 | 7.0 | 8.0 | 0.00 | 0.00 | 0.00 | 86 | 1018.3 |
| 20260510042007 | 45 | 161 | 9.0 | 9.0 | 0.00 | 0.00 | 0.00 | 85 | 1018.3 |
| 20260510041507 | 46 | 162 | 9.0 | 9.0 | 0.00 | 0.00 | 0.00 | 83 | 1018.2 |
| 20260510041007 | 44 | 171 | 7.0 | 8.0 | 0.00 | 0.00 | 0.00 | 86 | 1018.4 |
| 20260510040508 | 45 | 180 | 7.0 | 7.0 | 0.00 | 0.00 | 0.00 | 85 | 1018.4 |
| 20260510040007 | 46 | 177 | 8.0 | 9.0 | 0.00 | 0.00 | 0.00 | 83 | 1018.2 |
| 20260510035507 | 46 | 171 | 7.0 | 8.0 | 0.00 | 0.00 | 0.00 | 82 | 1018.4 |
| 20260510035008 | 46 | 176 | 6.0 | 6.0 | 0.00 | 0.00 | 0.00 | 83 | 1018.3 |
| 20260510034508 | 46 | 198 | 6.0 | 6.0 | 0.00 | 0.00 | 0.00 | 82 | 1018.3 |
| 20260510034007 | 47 | 193 | 5.0 | 6.0 | 0.00 | 0.00 | 0.00 | 80 | 1018.1 |
| 20260510033508 | 47 | 170 | 7.0 | 7.0 | 0.00 | 0.00 | 0.00 | 80 | 1018.1 |
| 20260510033007 | 46 | 171 | 7.0 | 7.0 | 0.00 | 0.00 | 0.00 | 81 | 1018.1 |
| 20260510032508 | 46 | 165 | 5.0 | 6.0 | 0.00 | 0.00 | 0.00 | 82 | 1018.0 |
| 20260510032007 | 46 | 171 | 6.0 | 6.0 | 0.00 | 0.00 | 0.00 | 82 | 1018.0 |
| 20260510031507 | 46 | 150 | 5.0 | 5.0 | 0.00 | 0.00 | 0.00 | 81 | 1017.8 |
| 20260510031009 | 46 | 147 | 5.0 | 5.0 | 0.00 | 0.00 | 0.00 | 82 | 1017.9 |
| 20260510030507 | 46 | 146 | 5.0 | 5.0 | 0.00 | 0.00 | 0.00 | 82 | 1018.0 |
| 20260510030008 | 46 | 162 | 5.0 | 5.0 | 0.00 | 0.00 | 0.00 | 82 | 1018.0 |
| 20260510025508 | 46 | 159 | 5.0 | 5.0 | 0.00 | 0.00 | 0.00 | 81 | 1017.9 |
| 20260510025008 | 46 | 159 | 5.0 | 5.0 | 0.00 | 0.00 | 0.00 | 81 | 1018.0 |
| 20260510024507 | 47 | 164 | 4.0 | 5.0 | 0.00 | 0.00 | 0.00 | 80 | 1017.8 |
| 20260510024007 | 47 | 151 | 4.0 | 4.0 | 0.00 | 0.00 | 0.00 | 80 | 1017.5 |
| 20260510023508 | 47 | 132 | 4.0 | 4.0 | 0.00 | 0.00 | 0.00 | 79 | 1017.8 |
| 20260510023008 | 47 | 91 | 5.0 | 5.0 | 0.00 | 0.00 | 0.00 | 79 | 1017.6 |
| 20260510022507 | 48 | 115 | 4.0 | 4.0 | 0.00 | 0.00 | 0.00 | 78 | 1017.6 |
| 20260510022007 | 47 | 117 | 2.0 | 2.0 | 0.00 | 0.00 | 0.00 | 79 | 1017.8 |
| 20260510021508 | 47 | 105 | 1.0 | 2.0 | 0.00 | 0.00 | 0.00 | 78 | 1017.9 |
| 20260510021006 | 48 | 127 | 1.0 | 1.0 | 0.00 | 0.00 | 0.00 | 78 | 1018.0 |
| 20260510020507 | 48 | 174 | 1.0 | 2.0 | 0.00 | 0.00 | 0.00 | 78 | 1018.2 |
| 20260510020007 | 48 | 144 | 3.0 | 3.0 | 0.00 | 0.00 | 0.00 | 77 | 1018.2 |
| 20260510015507 | 48 | 105 | 3.0 | 3.0 | 0.00 | 0.00 | 0.00 | 78 | 1018.0 |
| 20260510015007 | 48 | 105 | 4.0 | 4.0 | 0.00 | 0.00 | 0.00 | 77 | 1018.3 |
| 20260510014508 | 48 | 109 | 2.0 | 2.0 | 0.00 | 0.00 | 0.00 | 77 | 1018.4 |
| 20260510014007 | 48 | 109 | 1.0 | 1.0 | 0.00 | 0.00 | 0.00 | 77 | 1018.4 |
| 20260510013508 | 48 | 112 | 2.0 | 2.0 | 0.00 | 0.00 | 0.00 | 77 | 1018.4 |
| 20260510013008 | 48 | 104 | 4.0 | 4.0 | 0.00 | 0.00 | 0.00 | 76 | 1018.5 |
| 20260510012508 | 49 | 111 | 3.0 | 4.0 | 0.00 | 0.00 | 0.00 | 76 | 1018.5 |
| 20260510012007 | 49 | 107 | 4.0 | 4.0 | 0.00 | 0.00 | 0.00 | 76 | 1018.8 |
| 20260510011507 | 49 | 131 | 2.0 | 3.0 | 0.00 | 0.00 | 0.00 | 76 | 1018.7 |
| 20260510010508 | 48 | 140 | 1.0 | 1.0 | 0.00 | 0.00 | 0.00 | 77 | 1018.8 |
| 20260510010007 | 49 | 89 | 0.0 | 0.0 | 0.00 | 0.00 | 0.00 | 76 | 1018.9 |
| 20260510005507 | 49 | 346 | 0.0 | 0.0 | 0.00 | 0.00 | 0.00 | 75 | 1019.3 |
| 20260510005007 | 50 | 89 | 2.0 | 2.0 | 0.00 | 0.00 | 0.00 | 74 | 1019.3 |
| 20260510004508 | 49 | 94 | 2.0 | 2.0 | 0.00 | 0.00 | 0.00 | 75 | 1019.3 |
| 20260510004008 | 49 | 124 | 2.0 | 2.0 | 0.00 | 0.00 | 0.00 | 75 | 1019.2 |
| 20260510003508 | 49 | 168 | 2.0 | 2.0 | 0.00 | 0.00 | 0.00 | 76 | 1019.3 |
| 20260510003007 | 49 | 216 | 4.0 | 4.0 | 0.00 | 0.00 | 0.00 | 75 | 1019.4 |
| 20260510002507 | 49 | 230 | 2.0 | 3.0 | 0.00 | 0.00 | 0.00 | 74 | 1019.4 |
| 20260510002007 | 49 | 214 | 2.0 | 2.0 | 0.00 | 0.00 | 0.00 | 75 | 1019.5 |
| 20260510001508 | 49 | 231 | 2.0 | 2.0 | 0.00 | 0.00 | 0.00 | 76 | 1019.5 |
| 20260510001007 | 48 | 238 | 5.0 | 6.0 | 0.00 | 0.00 | 0.00 | 77 | 1019.6 |
| 20260510000507 | 49 | 245 | 7.0 | 8.0 | 0.00 | 0.00 | 0.00 | 76 | 1019.7 |
| 20260510000008 | 49 | 216 | 6.0 | 6.0 | 0.00 | 0.00 | 0.00 | 76 | 1019.6 |
| 20260509235507 | 48 | 218 | 7.0 | 8.0 | 0.00 | 0.00 | 0.00 | 77 | 1019.9 |
| 20260509235007 | 49 | 203 | 5.0 | 7.0 | 0.00 | 0.00 | 0.00 | 74 | 1019.9 |
| 20260509234507 | 49 | 178 | 8.0 | 8.0 | 0.00 | 0.00 | 0.00 | 74 | 1019.8 |
| 20260509234007 | 49 | 181 | 6.0 | 6.0 | 0.00 | 0.00 | 0.00 | 74 | 1019.8 |
| 20260509233508 | 50 | 218 | 4.0 | 4.0 | 0.00 | 0.00 | 0.00 | 73 | 1019.9 |
| 20260509233007 | 49 | 164 | 5.0 | 6.0 | 0.00 | 0.00 | 0.00 | 73 | 1019.7 |
| 20260509232508 | 49 | 161 | 8.0 | 8.0 | 0.00 | 0.00 | 0.00 | 74 | 1019.7 |
| 20260509232007 | 49 | 152 | 9.0 | 10.0 | 0.00 | 0.00 | 0.00 | 74 | 1019.7 |
| 20260509231508 | 49 | 140 | 11.0 | 12.0 | 0.00 | 0.00 | 0.00 | 73 | 1019.6 |
| 20260509231007 | 49 | 132 | 14.0 | 15.0 | 0.00 | 0.00 | 0.00 | 73 | 1019.7 |
| 20260509230507 | 50 | 148 | 12.0 | 17.0 | 0.00 | 0.00 | 0.00 | 72 | 1019.7 |
| 20260509230007 | 50 | 141 | 12.0 | 14.0 | 0.00 | 0.00 | 0.00 | 72 | 1020.0 |
| 20260509225508 | 50 | 141 | 12.0 | 13.0 | 0.00 | 0.00 | 0.00 | 72 | 1019.8 |
| 20260509225007 | 50 | 142 | 11.0 | 12.0 | 0.00 | 0.00 | 0.00 | 72 | 1019.8 |
| 20260509224508 | 50 | 136 | 14.0 | 15.0 | 0.00 | 0.00 | 0.00 | 72 | 1019.8 |
| 20260509224008 | 50 | 135 | 15.0 | 17.0 | 0.00 | 0.00 | 0.00 | 72 | 1019.8 |
| 20260509223508 | 50 | 123 | 13.0 | 15.0 | 0.00 | 0.00 | 0.00 | 71 | 1019.5 |
| 20260509223008 | 50 | 132 | 14.0 | 14.0 | 0.00 | 0.00 | 0.00 | 71 | 1019.7 |
| 20260509222507 | 50 | 125 | 12.0 | 15.0 | 0.00 | 0.00 | 0.00 | 72 | 1019.6 |
| 20260509222008 | 50 | 114 | 13.0 | 16.0 | 0.00 | 0.00 | 0.00 | 71 | 1019.4 |
| 20260509221507 | 50 | 113 | 14.0 | 16.0 | 0.00 | 0.00 | 0.00 | 71 | 1019.6 |